Location: Newark
(25.6108°S, 54.5803°W)
Time: 20:30:16
(UTC+00:00)

Courier 1B - Pass Details

Date: 03 November 2020
Orbit: 962 x 1209 km, 28.3° (Epoch: 24 November)

Event Time Altitude Azimuth Distance (km) Brightness Sun altitude
Rises 03:17:19 0° 259° (W) 3,986 - -49.2°
Reaches altitude 10° 03:20:04 10° 258° (WSW) 3,057 - -49.2°
Maximum altitude 03:27:44 81° 171° (S) 1,210 - -49.2°
Drops below altitude 10° 03:35:40 10° 83° (E) 3,149 - -49.1°
Sets 03:38:32 0° 81° (E) 4,112 - -49.0°
